Regional Weather Roundup
Issued by NWS

Home | Current Version | Previous Version | Graphics & Text | Print | Product List | Glossary On
Versions: 1 2 3 4 5 6 7 8 9 10 11 12 13 14 15 16 17 18 19 20 21 22 23 24 25 26 27 28 29 30 31 32 33 34 35 36 37 38 39 40 41 42 43 44 45 46 47 48 49 50
184
ASUS45 KABQ 230601
RWRNM
NEW MEXICO REGIONAL WEATHER ROUNDUP
NATIONAL WEATHER SERVICE ALBUQUERQUE NM
1100 PM MST WED FEB 22 2017

NOTE: "FAIR" MEANS FEW OR NO CLOUDS BELOW 12,000 FEET AGL WITH NO
       SIGNIFICANT WEATHER OR OBSTRUCTIONS TO VISION.

      THIS PRODUCT IS RELEASED AS TWO VERSIONS.  ONE VERSION NEAR
      THE TOP OF THE HOUR CONTAINING PRELIMINARY DATA FROM ALBUQUERQUE
      AND OTHER STATIONS.  A FINAL VERSION WITH ADDITIONAL DATA IS
      ISSUED ABOUT 10 MINUTES AFTER THE HOUR.

NMZ501-503-504-510>518-230700-
NORTHWEST PLATEAU/NORTHCENTRAL MOUNTAINS

CITY           SKY/WX    TMP DP  RH WIND       PRES   REMARKS
FARMINGTON     FAIR      48  17  29 SW13G22   29.72F
6HR MIN TEMP:  48; 6HR MAX TEMP:  59;

LOS ALAMOS     MOCLDY    45  24  43 S12       29.85F
SANTA FE       CLOUDY    47  25  42 S7        29.86F
6HR MIN TEMP:  47; 6HR MAX TEMP:  54;

TAOS             N/A     41  27  56 SE9       29.83F
ANGEL FIRE     LGT SNOW  33  31  92 S7        29.88F WCI  27

$$
NMZ402-403-502-505>509-230700-
WESTCENTRAL MOUNTAINS/SOUTHWEST MOUNTAINS

CITY           SKY/WX    TMP DP  RH WIND       PRES   REMARKS
GALLUP         FAIR      47  21  35 SW18G24   29.81F
6HR MIN TEMP:  46; 6HR MAX TEMP:  55;

GRANTS         CLOUDY    51  27  38 S17G23    29.87F
SILVER CITY    FAIR      49  36  61 NW14      29.91F

$$
NMZ407-409-411-412-230700-
SOUTHERN DESERTS

CITY           SKY/WX    TMP DP  RH WIND       PRES   REMARKS
DEMING         FAIR      51  35  54 CALM      29.88F
6HR MIN TEMP:  51; 6HR MAX TEMP:  75;

LAS CRUCES     FAIR      53  32  44 W9        29.88F
HOLLOMAN AFB   FAIR      57  30  36 S12       29.85F
ALAMOGORDO     FAIR      54  32  43 S12       29.84F
T OR C         FAIR      59  31  34 SW10      29.85S
6HR MIN TEMP:  59; 6HR MAX TEMP:  74;


$$
NMZ519>523-230700-
CENTRAL VALLEYS/CENTRAL HIGHLANDS

CITY           SKY/WX    TMP DP  RH WIND       PRES   REMARKS
ALBUQUERQUE    MOCLDY    49  29  46 SE7       29.85F
6HR MIN TEMP:  49; 6HR MAX TEMP:  65;

DOUBLE EAGLE   FAIR      47  24  40 W15       29.84F
MORIARTY ARPT  FAIR      43  31  62 W6        29.88F
6HR MIN TEMP:  43; 6HR MAX TEMP:  61;

CLINES CORNERS FAIR      40  28  62 NW8       29.89F WCI  34
6HR MIN TEMP:  40; 6HR MAX TEMP:  55;

BELEN          FAIR      48  30  50 E5        29.85F
6HR MIN TEMP:  46; 6HR MAX TEMP:  68;

SOCORRO        FAIR      54  29  38 W5        29.83F
6HR MIN TEMP:  53; 6HR MAX TEMP:  73;


$$
NMZ524>526-539-540-230700-
SOUTHCENTRAL MOUNTAINS

CITY           SKY/WX    TMP DP  RH WIND       PRES   REMARKS
RUIDOSO        NOT AVBL

$$
NMZ527>531-230700-
NORTHEAST HIGHLANDS/NORTHEAST PLAINS

CITY           SKY/WX    TMP DP  RH WIND       PRES   REMARKS
RATON          FAIR      44  29  55 W14       29.82F
6HR MIN TEMP:  41; 6HR MAX TEMP:  56;

CLAYTON        FAIR      53  34  48 W20G26    29.74S
6HR MIN TEMP:  51; 6HR MAX TEMP:  67;


$$
NMZ532>537-230700-
EASTCENTRAL PLAINS

CITY           SKY/WX    TMP DP  RH WIND       PRES   REMARKS
TUCUMCARI      FAIR      47  32  56 CALM      29.75F
6HR MIN TEMP:  46; 6HR MAX TEMP:  73;

CANNON AFB     FAIR      49  32  51 SW6       29.78F
6HR MIN TEMP:  49; 6HR MAX TEMP:  77;

CLOVIS AIRPORT FAIR      46  34  61 NW6       29.78F

$$
NMZ028-029-538-230700-
SOUTHEAST PLAINS

CITY           SKY/WX    TMP DP  RH WIND       PRES   REMARKS
ROSWELL        FAIR      56  29  35 SW10        N/A
6HR MIN TEMP:  50; 6HR MAX TEMP:  84;

ARTESIA        FAIR      61  30  31 SW15      29.78F
CARLSBAD       FAIR      53  24  32 S9        29.78F
6HR MIN TEMP:  53; 6HR MAX TEMP:  82;

HOBBS          FAIR      54  23  30 SW6       29.82F


$$




USA.gov is the U.S. government's official web portal to all federal, state and local government web resources and services.